Change the Weather History Date:

Friday, January 31, 2014

  Actual Average Record
Temperature  
Mean Temperature 32 °F -  
Max Temperature 34 °F 13 °F 38 °F (1994)
Min Temperature 29 °F -3 °F -40 °F (1993)
Degree Days  
Heating Degree Days 33 60  
Month to date heating degree days 1351 1853  
Since 1 July heating degree days 6713 7671  
Cooling Degree Days 0    
Month to date cooling degree days 0  
Year to date cooling degree days 0  
Moisture  
Dew Point 31 °F    
Average Humidity 0    
Maximum Humidity 0    
Minimum Humidity 0    
Precipitation  
Precipitation 0.25 in 0.03 in 0.32 in (1936)
Month to date precipitation 1.57 0.94  
Year to date precipitation 1.57 0.94  
Snow  
Snow 0.40 in 0.40 in 4.10 in (1973)
Month to date snowfall 12.2 12.7  
Since 1 July snowfall 45.2 44.5  
Snow Depth 5.00 in    
Sea Level Pressure  
Sea Level Pressure 30.07 in    
Wind  
Wind Speed 10 mph (SE)    
Max Wind Speed 17 mph    
Max Gust Speed 22 mph    
Visibility 4 miles    
Events Rain , Snow    
T = Trace of Precipitation, MM = Missing Value Source: NWS Daily Summary

Daily Weather History Graph

Daily Weather History Graph

Search for Another Location

Airport or City:

Trip Planner

Search our weather history database for the weather conditions in past years. The results will help you decide how hot, cold, wet, or windy it might be!

Date:

Astronomy

Jan. 31, 2014 Rise Set
Actual Time 10:47 AM AKST 5:44 PM AKST
Civil Twilight 9:48 AM AKST 6:42 PM AKST
Nautical Twilight 8:48 AM AKST 7:42 PM AKST
Astronomical Twilight 7:52 AM AKST 8:39 PM AKST
Moon 10:18 AM AKST (1/31) 8:20 PM AKST (1/31)
Length of Visible Light 8h 54m
Length of Day
6h 57m
New Moon, 1% of the Moon is Illuminated
Jan 31
New Moon
Feb 6
First Quarter
Feb 14
Full
Feb 22
Last Quarter
Feb 28
New

Hourly Weather History & Observations

Time (AKST) Temp. Windchill Dew Point Humidity Pressure Visibility Wind Dir Wind Speed Gust Speed Precip Events Conditions
12:53 AM 32.0 °F 22.1 °F 32.0 °F 100% 29.94 in 9.0 mi East 13.8 mph - 0.04 in   Overcast
1:53 AM 33.1 °F 22.2 °F 33.1 °F 100% 29.94 in 8.0 mi East 17.3 mph - 0.05 in Rain Light Rain
2:53 AM 33.1 °F 23.4 °F 33.1 °F 100% 29.95 in 10.0 mi East 13.8 mph - 0.04 in Rain Light Rain
3:35 AM 33.8 °F 23.5 °F 33.8 °F 100% 29.94 in 9.0 mi East 16.1 mph - 0.01 in Rain Light Rain
3:49 AM 33.8 °F 24.3 °F 33.8 °F 100% 29.94 in 9.0 mi East 13.8 mph - 0.02 in Rain Light Rain
3:53 AM 33.1 °F 23.0 °F 33.1 °F 100% 29.95 in 9.0 mi East 15.0 mph - 0.02 in Rain Light Rain
4:53 AM 33.1 °F 23.4 °F 33.1 °F 100% 29.95 in 8.0 mi ESE 13.8 mph - 0.02 in Rain Light Rain
5:02 AM 33.8 °F 23.9 °F 33.8 °F 100% 29.95 in 7.0 mi ESE 15.0 mph - 0.01 in Rain Light Rain
5:53 AM 33.1 °F 23.0 °F 33.1 °F 100% 29.96 in 6.0 mi ESE 15.0 mph - 0.03 in   Overcast
6:41 AM 33.8 °F 25.3 °F 33.8 °F 100% 29.97 in 7.0 mi ESE 11.5 mph - 0.01 in   Overcast
6:53 AM 33.1 °F 24.4 °F 33.1 °F 100% 29.97 in 10.0 mi SE 11.5 mph - 0.01 in   Overcast
7:14 AM 33.8 °F 25.3 °F 33.8 °F 100% 29.98 in 1.8 mi SE 11.5 mph - N/A   Overcast
7:47 AM 32.0 °F 23.6 °F 32.0 °F 100% 29.99 in 0.8 mi SE 10.4 mph - N/A   Mist
7:53 AM 32.0 °F 24.2 °F 32.0 °F 100% 29.99 in 1.0 mi SE 9.2 mph - N/A   Mist
8:23 AM 33.8 °F 26.4 °F 33.8 °F 100% 29.99 in 3.0 mi ESE 9.2 mph - N/A   Overcast
8:36 AM 33.8 °F 26.4 °F 33.8 °F 100% 30.00 in 3.0 mi ESE 9.2 mph - N/A   Overcast
8:53 AM 33.1 °F 26.1 °F 33.1 °F 100% 30.01 in 4.0 mi SE 8.1 mph - N/A   Overcast
9:53 AM 32.0 °F 22.5 °F 32.0 °F 100% 30.01 in 4.0 mi SE 12.7 mph - N/A   Overcast
10:18 AM 32.0 °F 24.8 °F 32.0 °F 100% 30.02 in 2.0 mi SE 8.1 mph - N/A   Overcast
10:53 AM 32.0 °F 24.8 °F 32.0 °F 100% 30.04 in 1.2 mi South 8.1 mph - N/A   Overcast
11:53 AM 32.0 °F 25.6 °F 32.0 °F 100% 30.05 in 1.0 mi SSE 6.9 mph - 0.00 in   Mist
12:53 PM 30.9 °F 25.2 °F 30.9 °F 100% 30.07 in 2.0 mi SE 5.8 mph - 0.01 in   Overcast
1:20 PM 30.2 °F 22.6 °F 30.2 °F 100% 30.07 in 2.0 mi ESE 8.1 mph - N/A   Overcast
1:37 PM 30.2 °F 23.4 °F 30.2 °F 100% 30.08 in 1.0 mi ESE 6.9 mph - N/A   Overcast
1:53 PM 30.9 °F 22.8 °F 30.9 °F 100% 30.09 in 3.0 mi SE 9.2 mph - N/A   Overcast
2:07 PM 30.2 °F 23.4 °F 30.2 °F 100% 30.08 in 10.0 mi SSE 6.9 mph - N/A   Overcast
2:41 PM 30.2 °F 24.3 °F 30.2 °F 100% 30.10 in 2.5 mi SSE 5.8 mph - N/A   Overcast
2:53 PM 30.0 °F 24.1 °F 30.0 °F 100% 30.10 in 1.2 mi SSE 5.8 mph - N/A   Overcast
3:19 PM 30.2 °F 24.3 °F 30.2 °F 100% 30.11 in 3.0 mi ESE 5.8 mph - N/A   Overcast
3:53 PM 30.9 °F 22.8 °F 30.9 °F 100% 30.11 in 9.0 mi SE 9.2 mph - N/A   Overcast
4:29 PM 30.2 °F 21.9 °F 30.2 °F 100% 30.11 in 2.0 mi SE 9.2 mph - N/A   Overcast
4:50 PM 30.2 °F 21.9 °F 30.2 °F 100% 30.12 in 1.2 mi SE 9.2 mph - 0.01 in Snow Light Snow
4:53 PM 30.0 °F 21.7 °F 30.0 °F 100% 30.13 in 1.8 mi ESE 9.2 mph - 0.01 in Snow Light Snow
4:57 PM 30.2 °F 21.3 °F 30.2 °F 100% 30.13 in 3.0 mi ESE 10.4 mph - 0.00 in Snow Light Snow
5:01 PM 30.2 °F 21.3 °F 30.2 °F 100% 30.13 in 3.0 mi East 10.4 mph - 0.00 in Snow Light Snow
5:53 PM 30.0 °F 21.1 °F 30.0 °F 100% 30.14 in 4.0 mi East 10.4 mph - 0.00 in Snow Light Snow
6:53 PM 30.9 °F 22.8 °F 30.9 °F 100% 30.17 in 3.0 mi ESE 9.2 mph - 0.00 in Snow Light Snow
7:23 PM 30.2 °F 21.3 °F 30.2 °F 100% 30.17 in 2.0 mi East 10.4 mph - 0.01 in Snow Light Snow
7:53 PM 30.9 °F 21.7 °F 30.9 °F 100% 30.17 in 2.0 mi East 11.5 mph - 0.02 in Snow Light Snow
8:53 PM 30.9 °F 22.2 °F 30.9 °F 100% 30.18 in 3.0 mi ESE 10.4 mph - 0.01 in Snow Light Snow
9:53 PM 30.9 °F 23.5 °F 30.9 °F 100% 30.20 in 3.0 mi ESE 8.1 mph - N/A   Overcast
10:53 PM 30.9 °F 27.5 °F 30.9 °F 100% 30.21 in 3.0 mi South 3.5 mph - N/A   Overcast
11:27 PM 30.2 °F 25.4 °F 30.2 °F 100% 30.22 in 2.5 mi SSW 4.6 mph - 0.00 in Snow Light Snow
11:42 PM 28.4 °F 19.1 °F 28.4 °F 100% 30.23 in 2.5 mi WSW 10.4 mph - 0.00 in Snow Light Snow
11:51 PM 28.4 °F 19.7 °F 28.4 °F 100% 30.24 in 5.0 mi WSW 9.2 mph - 0.00 in Snow Light Snow
11:53 PM 28.9 °F 20.4 °F 28.9 °F 100% 30.25 in 6.0 mi WSW 9.2 mph - 0.00 in   Overcast